Regional Weather Roundup
Issued by NWS

Home | Current Version | Previous Version | Text Only | Print | Product List | Glossary On
Versions: 1 2 3 4 5 6 7 8 9 10 11 12 13 14 15 16 17 18 19 20 21 22 23 24 25 26 27 28 29 30 31 32 33 34 35 36 37 38 39 40 41 42 43 44 45 46 47 48 49 50
000
ASUS44 KBMX 030810
RWRAL

ALABAMA REGIONAL WEATHER ROUNDUP
NATIONAL WEATHER SERVICE BIRMINGHAM AL
300 AM CDT FRI JUL 03 2015

NOTE: "FAIR" INDICATES FEW OR NO CLOUDS BELOW 12,000 FEET
WITH NO SIGNIFICANT WEATHER AND/OR OBSTRUCTIONS TO VISIBILITY.

THE REMARK "TC" DENOTES TEMPERATURE IN DEGREES CELSIUS.

ALZ001>011-014-016>018-020-030900-
NORTH ALABAMA

CITY           SKY/WX    TMP DP  RH WIND       PRES   REMARKS
MUSCLE SHOALS  LGT RAIN  78  72  81 W14       29.89F
HUNTSVILLE     CLOUDY    78  71  79 SW8       29.90S
DECATUR        CLOUDY    78  72  81 SW9       29.90S
HALEYVILLE     FAIR      76  73  90 SW12G18   29.95S THUNDER
GADSDEN        MOCLDY    86  68  54 SW5       29.92S
$$

ALZ012-013-022-023-030>036-040>044-030900-
WEST CENTRAL ALABAMA

CITY           SKY/WX    TMP DP  RH WIND       PRES   REMARKS
TUSCALOOSA     PTCLDY    76  72  87 S6        29.95F
$$

ALZ015-024>027-033>036-040>044-030900-
CENTRAL ALABAMA

CITY           SKY/WX    TMP DP  RH WIND       PRES   REMARKS
BIRMINGHAM     MOCLDY    79  73  82 SW12      29.96F
MONTGOMERY     CLOUDY    80  73  79 SW8       29.99F
SHELBY CO ARPT PTCLDY    76  73  91 SW6       29.97F
MAXWELL AFB    NOT AVBL
GREENVILLE     FAIR      77  72  84 SW5       30.01F
$$

ALZ019-021-028-029-037-038-045>048-030900-
EAST CENTRAL ALABAMA

CITY           SKY/WX    TMP DP  RH WIND       PRES   REMARKS
ANNISTON       MOCLDY    76  72  87 W6        29.95F
ALEXANDER CITY CLOUDY    75  71  87 S6        29.99F
AUBURN         CLOUDY    75  72  88 SW9       30.02S
$$

ALZ051>064-030900-
SOUTHWEST ALABAMA

CITY           SKY/WX    TMP DP  RH WIND       PRES   REMARKS
MOBILE         CLOUDY    78  77  96 SW7       30.05F
BROOKLEY FIELD CLOUDY    79  75  87 CALM      30.06S
EVERGREEN      CLOUDY    76  73  91 S7        30.03F
$$

ALZ049-050-065>069-030900-
SOUTHEAST ALABAMA

CITY           SKY/WX    TMP DP  RH WIND       PRES   REMARKS
DOTHAN         CLOUDY    75  73  93 SW7       30.07F
OZARK          CLOUDY    74  73  95 S5        30.03F
TROY           CLOUDY    76  73  91 SW6       30.02F
EUFAULA        FAIR      77  73  87 SW5       30.00F
$$


USA.gov is the U.S. government's official web portal to all federal, state and local government web resources and services.